Location: LDNL
(36.4545°S, 141.6685°E)
Time: 20:06:50
(UTC+10:00)

A-11 Canister half - Pass Details

Date: 05 February 2022
Orbit: 1527 x 1682 km, 47.3° (Epoch: 20 May)

Event Time Altitude Azimuth Distance (km) Brightness Sun altitude
Rises 04:46:52 0° 238° (WSW) 4,912 11.5 -22.5°
Reaches altitude 10° 04:50:06 10° 240° (WSW) 3,904 10.9 -22.0°
Maximum altitude 04:59:51 63° 318° (NW) 1,770 9.0 -20.6°
Drops below altitude 10° 05:09:15 10° 36° (NE) 3,758 11.0 -19.1°
Sets 05:12:18 0° 39° (NE) 4,719 11.6 -18.6°
